TTW235 RJCH-RJAA

Flight info

Callsign TTW235
Flight time 1h 15m
Altitude 34000
Route UWE SWAMP
Aircraft A320/M-SDE3FGHIRWY/LB1

Departure

Time 2026-05-08 13:19
Airport Hakodate Airport (RJCH)

Arrival

Time 2026-05-08 14:34
Airport Narita International Airport (RJAA)
Time Latitude Longitude Altitude Speed Heading
2026-05-08 12:55 41.77466 140.81695 109 ft 0 kts 359°
2026-05-08 13:11 41.77461 140.81695 108 ft 3 kts 360°
2026-05-08 13:11 41.77434 140.81694 108 ft 4 kts
2026-05-08 13:11 41.77408 140.81688 109 ft 4 kts 14°
2026-05-08 13:12 41.77382 140.81677 108 ft 4 kts 22°
2026-05-08 13:12 41.77357 140.81662 108 ft 4 kts 27°
2026-05-08 13:12 41.77333 140.81647 109 ft 4 kts
2026-05-08 13:12 41.77321 140.81646 108 ft 1 kts 289°
2026-05-08 13:13 41.77321 140.81647 108 ft 0 kts 289°
2026-05-08 13:15 41.77321 140.81646 108 ft 0 kts 289°
2026-05-08 13:15 41.77329 140.81619 108 ft 5 kts 289°
2026-05-08 13:15 41.77345 140.81557 107 ft 9 kts 289°
2026-05-08 13:15 41.77371 140.81458 106 ft 13 kts 289°
2026-05-08 13:16 41.77404 140.81321 104 ft 17 kts 287°
2026-05-08 13:16 41.77445 140.81151 101 ft 21 kts 288°
2026-05-08 13:16 41.77494 140.80951 100 ft 24 kts 289°
2026-05-08 13:16 41.77547 140.80749 94 ft 18 kts 290°
2026-05-08 13:17 41.77556 140.80621 92 ft 15 kts 269°
2026-05-08 13:17 41.77530 140.80542 90 ft 7 kts 208°
2026-05-08 13:17 41.77463 140.80518 92 ft 13 kts 190°
2026-05-08 13:17 41.77407 140.80590 94 ft 13 kts 101°
2026-05-08 13:18 41.77380 140.80704 92 ft 13 kts 108°
2026-05-08 13:18 41.77328 140.80921 96 ft 50 kts 108°
2026-05-08 13:18 41.77155 140.81639 110 ft 109 kts 108°
2026-05-08 13:18 41.76873 140.82801 132 ft 151 kts 107°
2026-05-08 13:19 41.76519 140.84234 481 ft 162 kts 114°
2026-05-08 13:19 41.75701 140.85230 1027 ft 165 kts 167°
2026-05-08 13:19 41.74575 140.85177 1570 ft 169 kts 200°
2026-05-08 13:19 41.73562 140.84226 1777 ft 189 kts 224°
2026-05-08 13:20 41.72518 140.82961 1985 ft 216 kts 222°
2026-05-08 13:20 41.71323 140.81561 2353 ft 240 kts 222°
2026-05-08 13:20 41.70027 140.80065 3061 ft 250 kts 222°
2026-05-08 13:20 41.68691 140.78537 3888 ft 256 kts 221°
2026-05-08 13:21 41.67324 140.76979 4739 ft 261 kts 221°
2026-05-08 13:21 41.65936 140.75404 5645 ft 262 kts 221°
2026-05-08 13:21 41.64548 140.73831 6594 ft 261 kts 221°
2026-05-08 13:21 41.63163 140.72264 7472 ft 261 kts 222°
2026-05-08 13:22 41.61772 140.70691 8337 ft 263 kts 222°
2026-05-08 13:22 41.60375 140.69108 9184 ft 264 kts 222°
2026-05-08 13:22 41.58975 140.67519 10029 ft 264 kts 223°
2026-05-08 13:22 41.57549 140.65900 10484 ft 279 kts 223°
2026-05-08 13:23 41.56007 140.64148 10625 ft 302 kts 223°
2026-05-08 13:23 41.54352 140.62273 10752 ft 323 kts 222°
2026-05-08 13:23 41.52607 140.60303 11167 ft 332 kts 222°
2026-05-08 13:23 41.50839 140.58308 11852 ft 333 kts 222°
2026-05-08 13:24 41.49071 140.56322 12598 ft 332 kts 222°
2026-05-08 13:24 41.47306 140.54335 13321 ft 332 kts 222°
2026-05-08 13:24 41.45539 140.52345 13936 ft 334 kts 222°
2026-05-08 13:24 41.43763 140.50345 14533 ft 334 kts 223°
2026-05-08 13:25 41.41983 140.48339 15107 ft 336 kts 223°
2026-05-08 13:25 41.40194 140.46330 15668 ft 337 kts 223°
2026-05-08 13:25 41.38394 140.44311 16222 ft 339 kts 223°
2026-05-08 13:25 41.36581 140.42279 16783 ft 341 kts 223°
2026-05-08 13:26 41.34763 140.40245 17354 ft 343 kts 223°
2026-05-08 13:26 41.32931 140.38199 17923 ft 345 kts 223°
2026-05-08 13:26 41.31093 140.36144 18420 ft 347 kts 223°
2026-05-08 13:26 41.29243 140.34074 18900 ft 349 kts 223°
2026-05-08 13:27 41.27398 140.32011 19362 ft 351 kts 223°
2026-05-08 13:27 41.25521 140.29914 19824 ft 354 kts 223°
2026-05-08 13:27 41.23628 140.27801 20282 ft 356 kts 223°
2026-05-08 13:27 41.21722 140.25677 20719 ft 359 kts 223°
2026-05-08 13:28 41.19804 140.23543 21140 ft 361 kts 223°
2026-05-08 13:28 41.17870 140.21394 21552 ft 363 kts 223°
2026-05-08 13:28 41.15879 140.19299 21949 ft 368 kts 217°
2026-05-08 13:28 41.13598 140.17696 22340 ft 376 kts 206°
2026-05-08 13:29 41.11044 140.16763 22717 ft 387 kts 195°
2026-05-08 13:29 41.08314 140.16562 23065 ft 398 kts 187°
2026-05-08 13:29 41.05528 140.16605 23434 ft 401 kts 187°
2026-05-08 13:29 41.02748 140.16651 23741 ft 403 kts 187°
2026-05-08 13:30 40.99922 140.16702 24075 ft 404 kts 187°
2026-05-08 13:30 40.97101 140.16752 24416 ft 405 kts 187°
2026-05-08 13:30 40.94277 140.16800 24752 ft 407 kts 187°
2026-05-08 13:30 40.91444 140.16845 25084 ft 408 kts 187°
2026-05-08 13:31 40.88601 140.16886 25371 ft 409 kts 187°
2026-05-08 13:31 40.85753 140.16924 25710 ft 410 kts 187°
2026-05-08 13:31 40.82902 140.16962 26166 ft 408 kts 187°
2026-05-08 13:31 40.80095 140.17003 26630 ft 406 kts 188°
2026-05-08 13:32 40.77280 140.17049 27113 ft 404 kts 188°
2026-05-08 13:32 40.74468 140.17094 27602 ft 402 kts 188°
2026-05-08 13:32 40.71672 140.17133 28087 ft 400 kts 188°
2026-05-08 13:32 40.68894 140.17169 28574 ft 399 kts 188°
2026-05-08 13:33 40.66126 140.17208 29008 ft 398 kts 188°
2026-05-08 13:33 40.63345 140.17248 29434 ft 398 kts 188°
2026-05-08 13:33 40.60583 140.17286 29872 ft 397 kts 188°
2026-05-08 13:33 40.57824 140.17326 30304 ft 395 kts 189°
2026-05-08 13:34 40.55084 140.17368 30713 ft 393 kts 188°
2026-05-08 13:34 40.52349 140.17407 31091 ft 391 kts 188°
2026-05-08 13:34 40.49636 140.17445 31459 ft 389 kts 188°
2026-05-08 13:34 40.46932 140.17484 31798 ft 388 kts 188°
2026-05-08 13:35 40.44229 140.17522 32138 ft 389 kts 188°
2026-05-08 13:35 40.41526 140.17560 32536 ft 388 kts 188°
2026-05-08 13:35 40.38834 140.17598 32978 ft 385 kts 188°
2026-05-08 13:35 40.36177 140.17639 33514 ft 380 kts 188°
2026-05-08 13:36 40.33523 140.17678 33808 ft 381 kts 188°
2026-05-08 13:36 40.30852 140.17710 33850 ft 387 kts 188°
2026-05-08 13:36 40.25371 140.17772 33835 ft 398 kts 188°
2026-05-08 13:37 40.19793 140.17858 33854 ft 402 kts 187°
2026-05-08 13:37 40.14194 140.17954 33849 ft 402 kts 187°
2026-05-08 13:38 40.08638 140.18042 33860 ft 401 kts 187°
2026-05-08 13:38 40.03066 140.18115 33828 ft 401 kts 187°
2026-05-08 13:39 39.97470 140.18187 33828 ft 402 kts 187°
2026-05-08 13:39 39.91869 140.18260 33848 ft 403 kts 187°
2026-05-08 13:40 39.86249 140.18339 33846 ft 404 kts 187°
2026-05-08 13:40 39.80627 140.18430 33826 ft 405 kts 187°
2026-05-08 13:41 39.74984 140.18508 33836 ft 406 kts 187°
2026-05-08 13:41 39.69322 140.18582 33842 ft 406 kts 187°
2026-05-08 13:42 39.64626 140.18651 33847 ft 407 kts 187°
2026-05-08 13:42 39.58946 140.18845 33865 ft 410 kts 184°
2026-05-08 13:43 39.53242 140.19482 33871 ft 411 kts 182°
2026-05-08 13:43 39.46622 140.20359 33855 ft 411 kts 182°
2026-05-08 13:44 39.41844 140.20928 33832 ft 412 kts 183°
2026-05-08 13:44 39.36125 140.21554 33833 ft 413 kts 183°
2026-05-08 13:45 39.30420 140.22168 33841 ft 415 kts 183°
2026-05-08 13:45 39.24663 140.22796 33825 ft 416 kts 183°
2026-05-08 13:46 39.18889 140.23435 33837 ft 416 kts 182°
2026-05-08 13:46 39.13104 140.24077 33839 ft 418 kts 183°
2026-05-08 13:47 39.07306 140.24712 33835 ft 418 kts 182°
2026-05-08 13:47 39.01505 140.25348 33848 ft 419 kts 182°
2026-05-08 13:48 38.95685 140.25989 33857 ft 420 kts 182°
2026-05-08 13:48 38.89873 140.26627 33861 ft 419 kts 183°
2026-05-08 13:49 38.84052 140.27256 33832 ft 420 kts 182°
2026-05-08 13:49 38.78212 140.27889 33839 ft 421 kts 182°
2026-05-08 13:50 38.72362 140.28522 33846 ft 422 kts 182°
2026-05-08 13:50 38.66504 140.29158 33834 ft 423 kts 182°
2026-05-08 13:51 38.60624 140.29798 33850 ft 424 kts 182°
2026-05-08 13:51 38.54742 140.30439 33853 ft 424 kts 182°
2026-05-08 13:52 38.48859 140.31075 33839 ft 425 kts 182°
2026-05-08 13:52 38.42961 140.31708 33851 ft 426 kts 182°
2026-05-08 13:53 38.37050 140.32343 33860 ft 426 kts 182°
2026-05-08 13:53 38.31130 140.32982 33840 ft 426 kts 182°
2026-05-08 13:54 38.25212 140.33619 33845 ft 427 kts 182°
2026-05-08 13:54 38.19287 140.34251 33858 ft 428 kts 182°
2026-05-08 13:55 38.13389 140.34880 33838 ft 428 kts 181°
2026-05-08 13:56 38.04482 140.35833 33859 ft 428 kts 182°
2026-05-08 13:56 37.98539 140.36478 33861 ft 429 kts 182°
2026-05-08 13:57 37.92596 140.37110 33851 ft 429 kts 182°
2026-05-08 13:57 37.86652 140.37736 33851 ft 429 kts 182°
2026-05-08 13:58 37.80699 140.38363 33851 ft 429 kts 182°
2026-05-08 13:58 37.74752 140.38987 33856 ft 429 kts 182°
2026-05-08 13:59 37.68802 140.39621 33861 ft 429 kts 182°
2026-05-08 13:59 37.62845 140.40255 33853 ft 430 kts 182°
2026-05-08 14:00 37.56885 140.40884 33845 ft 430 kts 181°
2026-05-08 14:00 37.50916 140.41507 33856 ft 431 kts 181°
2026-05-08 14:01 37.44926 140.42130 33857 ft 432 kts 182°
2026-05-08 14:01 37.38935 140.42757 33851 ft 432 kts 181°
2026-05-08 14:02 37.32976 140.43387 33857 ft 433 kts 181°
2026-05-08 14:02 37.26974 140.44017 33865 ft 433 kts 181°
2026-05-08 14:03 37.20964 140.44651 33866 ft 434 kts 181°
2026-05-08 14:03 37.14941 140.45269 33873 ft 435 kts 181°
2026-05-08 14:04 37.08910 140.45890 33876 ft 435 kts 181°
2026-05-08 14:04 37.02869 140.46523 33858 ft 436 kts 181°
2026-05-08 14:05 36.96825 140.47149 33858 ft 437 kts 181°
2026-05-08 14:05 36.90762 140.47784 33863 ft 437 kts 181°
2026-05-08 14:06 36.84690 140.48413 33845 ft 438 kts 181°
2026-05-08 14:06 36.78594 140.49039 33852 ft 439 kts 181°
2026-05-08 14:07 36.72492 140.49664 33860 ft 440 kts 181°
2026-05-08 14:07 36.66382 140.50299 33837 ft 441 kts 180°
2026-05-08 14:08 36.60262 140.50935 33843 ft 442 kts 180°
2026-05-08 14:08 36.54133 140.51561 33850 ft 442 kts 181°
2026-05-08 14:09 36.48001 140.52183 33839 ft 442 kts 180°
2026-05-08 14:09 36.41865 140.52805 33841 ft 443 kts 180°
2026-05-08 14:10 36.35727 140.53777 33847 ft 451 kts 170°
2026-05-08 14:10 36.32762 140.55136 33827 ft 459 kts 159°
2026-05-08 14:10 36.29994 140.57185 33829 ft 468 kts 149°
2026-05-08 14:11 36.25268 140.62867 33829 ft 477 kts 138°
2026-05-08 14:11 36.20728 140.68898 33841 ft 478 kts 138°
2026-05-08 14:12 36.16186 140.74898 33837 ft 477 kts 138°
2026-05-08 14:12 36.11643 140.80891 33849 ft 478 kts 138°
2026-05-08 14:13 36.07111 140.86912 33852 ft 478 kts 137°
2026-05-08 14:13 36.02587 140.92946 33867 ft 478 kts 137°
2026-05-08 14:14 35.98461 140.99417 33873 ft 486 kts 124°
2026-05-08 14:14 35.95926 141.07153 33855 ft 493 kts 112°
2026-05-08 14:14 35.94632 141.11047 33640 ft 488 kts 122°
2026-05-08 14:15 35.92840 141.14548 33369 ft 478 kts 134°
2026-05-08 14:15 35.90486 141.17366 33105 ft 466 kts 150°
2026-05-08 14:15 35.87682 141.19270 32683 ft 456 kts 164°
2026-05-08 14:15 35.84629 141.20220 31638 ft 452 kts 179°
2026-05-08 14:16 35.81492 141.20237 30586 ft 452 kts 190°
2026-05-08 14:16 35.78473 141.19263 29400 ft 450 kts 209°
2026-05-08 14:16 35.75999 141.17002 28466 ft 443 kts 229°
2026-05-08 14:16 35.74369 141.13819 27502 ft 442 kts 248°
2026-05-08 14:17 35.73777 141.10107 26454 ft 448 kts 268°
2026-05-08 14:17 35.74280 141.06300 25366 ft 459 kts 286°
2026-05-08 14:17 35.75854 141.02838 24270 ft 473 kts 304°
2026-05-08 14:17 35.78025 140.99782 23394 ft 472 kts 304°
2026-05-08 14:18 35.79909 140.96543 22338 ft 456 kts 297°
2026-05-08 14:18 35.81413 140.93186 20856 ft 442 kts 291°
2026-05-08 14:18 35.82686 140.89815 19831 ft 425 kts 289°
2026-05-08 14:18 35.83889 140.86568 18924 ft 408 kts 290°
2026-05-08 14:19 35.85096 140.83514 18049 ft 396 kts 291°
2026-05-08 14:19 35.86366 140.80554 17110 ft 385 kts 293°
2026-05-08 14:19 35.87694 140.77648 16245 ft 383 kts 294°
2026-05-08 14:19 35.89027 140.74823 15411 ft 379 kts 294°
2026-05-08 14:20 35.90357 140.72030 14619 ft 378 kts 294°
2026-05-08 14:20 35.91674 140.69250 13838 ft 380 kts 294°
2026-05-08 14:20 35.93003 140.66420 13027 ft 381 kts 294°
2026-05-08 14:20 35.94316 140.63604 12462 ft 375 kts 294°
2026-05-08 14:21 35.95599 140.60848 11936 ft 368 kts 294°
2026-05-08 14:21 35.96861 140.58119 11400 ft 362 kts 294°
2026-05-08 14:21 35.98081 140.55489 11276 ft 345 kts 295°
2026-05-08 14:21 35.99431 140.53099 11153 ft 332 kts 301°
2026-05-08 14:22 36.00786 140.50873 11036 ft 319 kts 300°
2026-05-08 14:22 36.02096 140.48718 10915 ft 307 kts 300°
2026-05-08 14:22 36.03353 140.46641 10793 ft 296 kts 300°
2026-05-08 14:22 36.04561 140.44638 10683 ft 286 kts 300°
2026-05-08 14:23 36.05733 140.42691 10454 ft 280 kts 300°
2026-05-08 14:23 36.06885 140.40774 10218 ft 276 kts 299°
2026-05-08 14:23 36.08023 140.38879 10062 ft 274 kts 299°
2026-05-08 14:23 36.09158 140.36987 9956 ft 274 kts 299°
2026-05-08 14:24 36.10291 140.35097 9827 ft 273 kts 300°
2026-05-08 14:24 36.11328 140.33143 9468 ft 269 kts 290°
2026-05-08 14:24 36.11904 140.30976 8992 ft 265 kts 276°
2026-05-08 14:24 36.12008 140.29477 8722 ft 262 kts 267°
2026-05-08 14:25 36.11970 140.26447 8168 ft 263 kts 267°
2026-05-08 14:25 36.11948 140.24168 7709 ft 266 kts 267°
2026-05-08 14:25 36.11937 140.22655 7539 ft 263 kts 267°
2026-05-08 14:25 36.11771 140.20432 6955 ft 259 kts 250°
2026-05-08 14:26 36.10286 140.18177 6217 ft 260 kts 209°
2026-05-08 14:26 36.09145 140.17709 5861 ft 264 kts 188°
2026-05-08 14:26 36.07327 140.17851 5578 ft 255 kts 175°
2026-05-08 14:26 36.05637 140.17989 5519 ft 233 kts 181°
2026-05-08 14:27 36.04077 140.18089 5431 ft 217 kts 173°
2026-05-08 14:27 36.02665 140.18622 5335 ft 212 kts 158°
2026-05-08 14:27 36.01401 140.19448 5278 ft 194 kts 155°
2026-05-08 14:27 36.00299 140.20243 5134 ft 175 kts 154°
2026-05-08 14:28 35.99300 140.20971 4957 ft 159 kts 155°
2026-05-08 14:28 35.98369 140.21646 4777 ft 153 kts 154°
2026-05-08 14:28 35.97461 140.22305 4569 ft 150 kts 156°
2026-05-08 14:28 35.96548 140.22965 4370 ft 154 kts 155°
2026-05-08 14:29 35.95621 140.23640 4172 ft 154 kts 154°
2026-05-08 14:29 35.94699 140.24310 3975 ft 155 kts 153°
2026-05-08 14:29 35.93752 140.24999 3749 ft 158 kts 153°
2026-05-08 14:29 35.92826 140.25673 3523 ft 151 kts 153°
2026-05-08 14:30 35.91925 140.26328 3348 ft 150 kts 153°
2026-05-08 14:30 35.91027 140.26980 3153 ft 150 kts 154°
2026-05-08 14:30 35.90132 140.27629 2967 ft 149 kts 153°
2026-05-08 14:30 35.89237 140.28279 2769 ft 149 kts 153°
2026-05-08 14:31 35.88347 140.28925 2573 ft 148 kts 152°
2026-05-08 14:31 35.87455 140.29572 2372 ft 149 kts 152°
2026-05-08 14:31 35.86559 140.30221 2184 ft 149 kts 153°
2026-05-08 14:32 35.84801 140.31496 1807 ft 147 kts 152°
2026-05-08 14:32 35.83928 140.32129 1608 ft 144 kts 152°
2026-05-08 14:32 35.83061 140.32757 1415 ft 145 kts 154°
2026-05-08 14:32 35.82190 140.33388 1225 ft 145 kts 153°
2026-05-08 14:33 35.81321 140.34018 1030 ft 145 kts 153°
2026-05-08 14:33 35.80457 140.34644 809 ft 145 kts 153°
2026-05-08 14:33 35.79576 140.35274 657 ft 148 kts 153°
2026-05-08 14:33 35.78694 140.35909 430 ft 144 kts 153°
2026-05-08 14:34 35.77827 140.36536 254 ft 147 kts 154°
2026-05-08 14:34 35.76955 140.37171 147 ft 139 kts 153°
2026-05-08 14:34 35.76253 140.37675 143 ft 92 kts 149°
2026-05-08 14:34 35.75851 140.37975 147 ft 43 kts 149°
2026-05-08 14:35 35.75637 140.38128 147 ft 31 kts 144°
2026-05-08 14:35 35.75513 140.38306 145 ft 16 kts 118°
2026-05-08 14:35 35.75464 140.38424 145 ft 10 kts 103°
2026-05-08 14:35 35.75482 140.38517 144 ft 13 kts 61°
2026-05-08 14:36 35.75550 140.38579 144 ft 14 kts 345°
2026-05-08 14:36 35.75641 140.38513 144 ft 16 kts 329°
2026-05-08 14:36 35.75747 140.38436 144 ft 19 kts 329°
2026-05-08 14:36 35.75867 140.38348 144 ft 21 kts 329°
2026-05-08 14:37 35.76002 140.38253 144 ft 23 kts 329°
2026-05-08 14:37 35.76146 140.38148 144 ft 23 kts 330°
2026-05-08 14:37 35.76288 140.38043 144 ft 25 kts 329°
2026-05-08 14:37 35.76409 140.37962 144 ft 12 kts 347°
2026-05-08 14:38 35.76471 140.38033 144 ft 14 kts 47°
2026-05-08 14:38 35.76539 140.38085 144 ft 7 kts 49°
2026-05-08 14:38 35.76518 140.38137 144 ft 9 kts 156°
2026-05-08 14:38 35.76488 140.38171 144 ft 2 kts 119°
2026-05-08 14:39 35.76486 140.38178 144 ft 0 kts 117°